sat.trackr.live / text

‹ back to catalog

STARLINK-34931

NORAD 65398 · 2025-191V

PAYLOAD ACTIVE UNKNOWN

§ Identity

Operator
Country
US
Launch date
2025-08-30
Launch site
AFWTR
Launch vehicle
Mass (kg)
RCS (m²)

Purposes: comms

External: N2YO · Heavens-Above · Gunter

§ Orbital elements

Epoch: 2026-09-20T08:57:25.052832Z

Period
93.91 min
Inclination
97.2859°
Eccentricity
0.0002512
Mean motion
15.33463618 rev/d
Perigee alt
463.8 km
Apogee alt
467.2 km
Semi-major
6,843.6 km
B*
6.4714e-4
RAAN
129.4656°
Arg perigee
87.3188°
Mean anomaly
272.8343°
Rev number
5,962

§ Raw data

STARLINK-349311 65398U 25191V   26263.37320663  .00020888  00000+0  64714-3 0  99982 65398  97.2859 129.4656 0002512  87.3188 272.8343 15.33463618 59622

JSON: /api/v1/satellites/65398 · /tle

For live sub-satellite position, see the globe view (requires WebGL).

§ Visibility from observer

Set your observer location to see the next 7 days of passes ≥ 10°. The values pass through the URL so the page stays shareable.

No JS? Fill the form by hand. The geolocation button needs JavaScript.